www.pogodaiklimat.ru

Погода и климат >> Архив погоды >> Латвия >> Даугавпилс


АРХИВ ПОГОДЫ в Даугавпилсе

Время (UTC), дата Ветер
(напр.,м/с)
 
Видим.   Явления Облачность Т
(С)
Тd
(С)
f
(%)
Тe
(С)
Тes
(С)
Комфортность P
(гПа)
Po
(гПа)
Тmin
(С)
Tmax
(С)
R
(мм)
R24
(мм)
S
(см)
03 9.09 ЮВ 2-4
{4}
20 км ясно +16.5 +14.8 90 +17 +17 тепло 1022.1 1010.3
06 9.09 В 1-1
{2}
20 км 10/0
[]
+18.7 +15.3 81 +21 +21 комфорт 1022.1 1010.4 0
09 9.09 В 2-3
{4}
20 км ясно +23.8 +15.8 61 +27 +35 жарко 1021.7 1010.2
12 9.09 ЮВ 3-8
{8}
15 км ясно +26.5 +10.9 38 +27 +27 жарко 1020.6 1009.2
15 9.09 ЮВ 4-6
{7}
19 км н/о +25.3 +9.9 38 +26 +26 жарко 1020.0 1008.6
18 9.09 В 2-3
{4}
20 км ясно +19.5 +10.9 58 +21 +21 комфорт 1021.0 1009.3
21 9.09 В 1-2
{2}
20 км ясно +14.3 +11.6 84 +15 +15 тепло 1021.4 1009.5
00 10.09 В 4-7
{7}
20 км ясно +18.5 +12.6 68 +19 +19 тепло 1021.0 1009.3
03 10.09 В 3-5
{5}
20 км ясно +16.2 +12.1 77 +16 +16 тепло 1020.5 1008.7
06 10.09 В 3-6
{6}
20 км ясно +18.3 +11.3 64 +19 +20 тепло 1020.4 1008.7 0
09 10.09 ЮВ 7-11
{11}
20 км ясно +23.5 +10.5 44 +25 +27 комфорт 1020.0 1008.5
12 10.09 ЮВ 5 н/о н/о +24.5 +8.4 36 +25 +25 комфорт 1019.6 1008.2
15 10.09 Ю 2 н/о н/о +22.5 +8.2 40 +24 +24 комфорт 1020.1 1008.6
18 10.09 ЮВ 1 н/о н/о +17.6 +10.8 64 +19 +19 тепло 1021.1 1009.4
21 10.09 штиль 0 н/о н/о +14.8 +10.8 77 +15 +15 тепло 1021.8 1010.0
00 11.09 штиль 0 н/о н/о +11.0 +10.3 95 +10 +10 по сезону 1023.2 1011.2
03 11.09 СЗ 1 н/о н/о +10.9 +10.4 97 +10 +10 по сезону 1023.7 1011.7
06 11.09 Ю 2 н/о н/о +16.1 +10.7 70 +16 +16 тепло 1024.0 1012.2
09 11.09 Ю 4 н/о н/о +19.7 +9.5 52 +21 +21 комфорт 1024.2 1012.5
12 11.09 Ю 4 н/о н/о +20.8 +8.4 45 +22 +22 комфорт 1023.9 1012.3
15 11.09 Ю 2 н/о н/о +20.6 +9.6 49 +23 +23 комфорт 1023.6 1012.0
18 11.09 ЮВ 1 н/о н/о +15.3 +10.8 75 +16 +16 тепло 1024.6 1012.8
21 11.09 штиль 0 н/о н/о +12.1 +10.6 91 +11 +11 по сезону 1024.8 1012.8
00 12.09 штиль 0 н/о н/о +9.5 +9.2 98 +9 +9 по сезону 1024.7 1012.6
03 12.09 штиль 0 н/о н/о +8.4 +8.2 99 +7 +7 по сезону 1024.3 1012.2
06 12.09 штиль 0 н/о н/о +15.4 +11.5 78 +15 +15 тепло 1023.5 1011.7
09 12.09 Ю 3 н/о н/о +21.2 +11.1 52 +23 +23 комфорт 1022.9 1011.3
12 12.09 ЮЗ 3 н/о н/о +22.4 +11.4 50 +25 +25 комфорт 1022.2 1010.7
15 12.09 ЮЗ 2 н/о н/о +21.2 +10.4 50 +23 +23 комфорт 1021.7 1010.2
18 12.09 ЮЗ 2 н/о н/о +17.2 +11.3 68 +18 +18 тепло 1023.1 1011.4
21 12.09 ЮЗ 1 н/о н/о +13.8 +10.9 83 +14 +14 тепло 1023.5 1011.6
00 13.09 Ю 1 н/о н/о +12.6 +11.0 90 +13 +13 тепло 1022.8 1010.9
03 13.09 Ю 1 н/о н/о +11.7 +11.0 95 +11 +11 тепло 1022.1 1010.1
06 13.09 Ю 2 н/о н/о +14.6 +11.7 83 +14 +14 тепло 1021.3 1009.5
09 13.09 Ю 3 н/о н/о +18.6 +10.9 61 +19 +19 тепло 1019.2 1007.6
15 13.09 Ю 3 н/о н/о +14.7 +13.6 93 +14 +14 по сезону 1013.8 1002.1
18 13.09 З 4 н/о н/о +13.1 +11.1 88 +11 +11 по сезону 1016.3 1004.4
21 13.09 З 3 н/о н/о +12.5 +10.3 86 +11 +11 по сезону 1018.0 1006.1
00 14.09 З 2 н/о н/о +10.6 +9.1 90 +9 +9 по сезону 1020.2 1008.2
03 14.09 ЮЗ 1 н/о н/о +7.8 +7.3 97 +7 +7 по сезону 1021.5 1009.4
06 14.09 ЮЗ 2 н/о н/о +10.7 +8.9 89 +9 +9 по сезону 1022.0 1010.0
09 14.09 СЗ 2 н/о н/о +12.8 +9.5 80 +12 +12 по сезону 1022.5 1010.6
12 14.09 З 4 н/о н/о +16.0 +5.9 51 +15 +15 по сезону 1021.2 1009.5
15 14.09 З 3 н/о н/о +14.6 +5.7 55 +14 +14 по сезону 1021.6 1009.8
18 14.09 ЮЗ 1 н/о н/о +8.9 +8.6 98 +8 +8 по сезону 1022.5 1010.4
21 14.09 ЮЗ 1 н/о н/о +7.7 +7.2 97 +7 +7 по сезону 1022.6 1010.5
00 15.09 ЮЗ 1 н/о н/о +7.7 +6.3 91 +7 +7 по сезону 1021.5 1009.4
03 15.09 Ю 1 н/о н/о +7.9 +6.7 92 +7 +7 по сезону 1019.5 1007.4
06 15.09 Ю 2 н/о н/о +10.7 +9.5 92 +9 +9 по сезону 1017.0 1005.1
09 15.09 ЮЗ 4 н/о н/о +11.9 +10.1 89 +10 +10 по сезону 1013.4 1001.6
12 15.09 Ю 4 н/о н/о +11.6 +8.8 83 +9 +9 холодно 1010.1 998.2
15 15.09 Ю 4 н/о н/о +12.5 +8.1 75 +11 +11 по сезону 1006.0 994.3
18 15.09 ЮЗ 4 н/о н/о +13.0 +8.4 74 +11 +11 по сезону 1003.3 991.6
21 15.09 ЮЗ 3 н/о н/о +12.1 +10.5 90 +10 +10 по сезону 1002.2 990.5

 

Местоположение метеостанции Даугавпилс (Латвия): широта 55.87 долгота 26.62 высота над уровнем моря 122 м.

В архиве по умолчанию представлена погода в Даугавпилсе за последнюю неделю. Архивные данные за месяц целиком и за предыдущие месяцы, начиная с января 2011 года, Вы можете получить, выбрав интересующий диапазон дат из раскрывающегося списка и нажав кнопку "Ввод!".


*Определитесь, кто Вы:
робот инопланетянин человек

Внимание! Время в таблицах - всемирное. Для получения местного времени необходимо прибавить поправку, которая равна 2 ч.

Смотрите также архив погоды в соседних городах и на ближайших метеорологических станциях:

Погода в Дукштасе (Литва) (43 км)
Погода в Утене (Литва) (74 км)
Погода в Шарковщине (Витебская область, Беларусь) (77 км)
Погода в Верхнедвинске (Витебская область, Беларусь) (83 км)
Погода в Резекне (Латвия) (84 км)
Погода в Зилани (Латвия) (84 км)
Погода в Швенчёнисе (Литва) (85 км)
Погода в Лынтупах (Витебская область, Беларусь) (93 км)
Погода в Нарочи (Минская область, Беларусь) (104 км)
Погода в Мадоне (Латвия) (111 км)

Пояснения к столбцам:

Ветер - указаны скорость ветра в м/с - средняя за 10 мин, порывы в срок и между сроками (в фигурных скобках) и направление, откуда дует ветер: С - северный, СВ - северо-восточный, В - восточный, ЮВ - юго-восточный, Ю - южный, ЮЗ - юго-западный, З - западный, СЗ - северо-западный.
Видимость - горизонтальная дальность видимости в метрах или километрах. При видимости от 1 до 10 км при отсутствии осадков обычно наблюдается дымка, при ухудшении видимости до 1 км и менее - туман. В сухую погоду видимость может ухудшаться дымом, пылью или мглою.
Явления - указаны атмосферные явления, наблюдавшиеся в срок или в последний час перед сроком; фигурными скобками обозначены явления, наблюдавшиеся между сроками (за 1-3 часа до срока); квадратными скобками обозначены град или гололедные отложения с указанием их диаметра в мм.
Облачность - указаны через наклонную черту общая и нижняя облачность в баллах и высота нижней границы облаков в метрах; квадратными скобками обозначены формы облаков: Ci - перистые, Cs - перисто-слоистые, Cc - перисто-кучевые, Ac - высококучевые, As - высокослоистые, Sc - слоисто-кучевые, Ns - слоисто-дождевые, Cu - кучевые, Cb - кучево-дождевые. Подробнее классификацию облаков см. в Атласе облаков (PDF).
T - Температура воздуха - температура, измеренная на высоте 2 м над землей.
Td - Температура точки росы - температура, при понижении до которой содержащийся в воздухе водяной пар достигнет насыщения.
f - Относительная влажность воздуха - влажноcть воздуха, измеренная на высоте 2 м над землей.
Te - Эффективная температура - температура, которую ощущает одетый по сезону человек в тени. Характеристика душности погоды. При расчете учитывается влияние влажности воздуха и скорости ветра на теплоощущения человека.
Tes - Эффективная температура на солнце - температура, которую ощущает человек, с поправкой на солнечный нагрев. Характеристика знойности погоды. Зависит от высоты солнца над горизонтом, облачности и скорости ветра. Ночью, в пасмурную погоду, а также при ветре 12 м/с и более поправка равна нулю.
P - Атмосферное давление - приведенное к уровню моря атмосферное давление.
Po - Атмосферное давление - измеренное на уровне метеостанции атмосферное давление.
Tmin - Минимальная температура - минимум температуры воздуха на высоте 2 м над землей.
Tmax - Максимальная температура - максимум температуры воздуха на высоте 2 м над землей.
R - Количество осадков - Количество выпавших осадков за период времени, мм. При наведении курсора мыши на число - период времени, за который выпало указанное количество осадков.
R24 - Количество осадков - Количество выпавших осадков за 24 часа, мм.
S - Снежный покров - Высота снежного покрова, см. При наведении курсора мыши на число - состояние снежного покрова и степень покрытия местности в баллах.